星链-5011 (STARLINK-5011 )

导读 | 星芒AI

STARLINK-5011 是 SpaceX 星链计划中的一颗低轨通信卫星,属于第 50 批发射的星链卫星群。该卫星旨在为全球用户提供高速互联网服务,尤其关注网络覆盖不足的地区。它运行在约 550 公里的轨道高度,采用先进的通信技术,支持高带宽和低延迟传输。作为星链系统的一部分,STARLINK-5011 有助于构建一个由数千颗卫星组成的全球网络,推动互联网接入的普及与数字化发展。

基本信息
目录编号:
53925
目录名称:
STARLINK-5011
国际标识:
2022-119AR
轨道中心:
EARTH
卫星名称:
星链-5011
卫星全名:
星链-5011 (STARLINK-5011 )
卫星状态:
在轨 (已飞行1184 天)
发射日期:
2022-09-24 UTC
国别 :
美国 (US)
星等 :
--
轨道信息
数据来源 国际轨道数据 AOE轨道数据
星历时间 2025-12-21T11:34:21+0800
6小时前
查看轨道信息
2025-12-19T20:00:00+0800
1天前
查看轨道信息
半长轴 6917.893km 6917.887km
偏心率 0.0001472 0.0001248
轨道倾角 53.219° 53.218°
近地点辐角 96.375° 86.709°
升交点赤经 306.302° 313.708°
平近点角 263.741° 312.251°
近地点 538.737km 538.886km
远地点 540.775km 540.614km
周期 95.438分钟 95.438分钟
每日圈数 15.088361 15.088381
详细信息
固有亮度:
5
最大亮度:
2.5
卫星平台:
Starlink v1.5
覆盖范围:
全球
运营商:
太空探索技术公司
运营商所在国:
美国
制造商(研发单位):
太空探索技术公司
制造商所在国:
美国
使用方式:
暂无
卫星简介
星链(Starlink)计划是由太空探索技术公司(SpaceX)提出的一个巨型低轨卫星互联网星座项目,计划在2019年至2024年间在太空搭建由约1.2万颗卫星组成的“星链”网络,其中1584颗将部署在地球上空550千米处的近地轨道,并从2020年开始工作。该卫星仍在工作。
2D轨道图
3D轨道图
轨道高度分析图
轨道倾角分析图
轨道综合分析图
查看轨道综合分析图